QPF
0.00 0.00 0.00 0.00 0.00 0.00 0.00 0.00 0.00 0.00 0.00 0.00 0.00 0.01 0.03 0.04 0.05 0.05 0.05 0.04 0.03 0.01 0.00 0.00 0.00 0.00 0.00 0.00 0.00 0.00 0.00 0.00 0.00 0.00 0.01 0.00 0.00 0.00 0.00 0.00 0.00 0.01 0.02
0.00 0.00 0.00 0.00 0.00 0.00 0.00 0.00 0.00 0.00 0.00 0.00 0.00 0.00 0.00 0.01 0.02 0.03 0.04 0.03 0.03 0.03 0.02 0.02 0.00 0.00 0.00 0.00 0.00 0.00 0.00 0.00 0.00 0.00 0.00 0.00 0.00 0.00 0.00 0.00 0.00 0.00 0.00
0.00 0.00 0.00 0.00 0.00 0.00 0.00 0.00 0.00 0.00 0.00 0.00 0.00 0.00 0.00 0.00 0.02 0.03 0.03 0.03 0.04 0.03 0.01 0.00 0.00 0.00 0.00 0.00 0.00 0.00 0.00 0.00 0.00 0.00 0.00 0.00 0.00 0.00 0.00 0.00 0.00 0.00 0.00
0.00 0.00 0.00 0.00 0.00 0.00 0.00 0.00 0.00 0.00 0.00 0.00 0.00 0.00 0.00 0.01 0.03 0.02 0.01 0.00 0.00 0.00 0.00 0.00 0.00 0.00 0.00 0.00 0.00 0.00 0.00 0.00 0.00 0.00 0.00 0.00 0.00 0.00 0.00 0.00 0.00 0.00 0.00
0.00 0.00 0.00 0.00 0.00 0.00 0.00 0.00 0.00 0.00 0.00 0.00 0.01 0.01 0.02 0.04 0.04 0.02 0.01 0.00 0.00 0.00 0.00 0.00 0.00 0.00 0.00 0.00 0.00 0.00 0.00 0.00 0.00 0.00 0.00 0.00 0.00 0.00 0.00 0.00 0.00 0.00 0.00
0.00 0.00 0.00 0.00 0.00 0.00 0.00 0.00 0.00 0.00 0.00 0.00 0.00 0.00 0.00 0.00 0.00 0.00 0.00 0.00 0.00 0.00 0.00 0.00 0.01 0.02 0.02 0.02 0.00 0.00 0.00 0.00 0.00 0.00 0.00 0.00 0.00 0.00 0.00 0.00 0.00 0.00 0.00
0.00 0.00 0.00 0.00 0.00 0.00 0.00 0.00 0.00 0.00 0.00 0.00 0.00 0.00 0.00 0.00 0.00 0.00 0.00 0.00 0.00 0.00 0.03 0.07 0.08 0.07 0.02 0.00 0.00 0.00 0.01 0.01 0.01 0.00 0.00 0.00 0.00 0.00 0.00 0.00 0.00 0.00 0.00
0.00 0.00 0.00 0.00 0.00 0.00 0.01 0.01 0.01 0.01 0.00 0.00 0.00 0.00 0.00 0.00 0.00 0.00 0.00 0.00 0.01 0.08 0.18 0.11 0.04 0.03 0.01 0.00 0.01 0.01 0.01 0.00 0.00 0.00 0.00 0.00 0.00 0.00 0.00 0.00 0.00 0.00 0.00
0.00 0.00 0.00 0.00 0.00 0.00 0.00 0.00 0.00 0.00 0.00 0.00 0.00 0.00 0.00 0.00 0.00 0.00 0.01 0.04 0.09 0.09 0.08 0.10 0.10 0.05 0.02 0.02 0.01 0.01 0.00 0.00 0.00 0.00 0.00 0.00 0.00 0.00 0.00 0.00 0.00 0.00 0.00
0.01 0.02 0.02 0.01 0.00 0.01 0.01 0.01 0.01 0.00 0.00 0.00 0.00 0.00 0.02 0.00 0.01 0.02 0.04 0.08 0.16 0.15 0.12 0.07 0.05 0.01 0.00 0.00 0.00 0.00 0.00 0.00 0.00 0.00 0.00 0.00 0.00 0.00 0.00 0.00 0.00 0.00 0.00
0.01 0.01 0.00 0.00 0.00 0.01 0.00 0.00 0.00 0.01 0.00 0.00 0.00 0.01 0.00 0.01 0.01 0.02 0.04 0.05 0.07 0.08 0.03 0.01 0.00 0.00 0.00 0.00 0.00 0.00 0.00 0.00 0.00 0.00 0.00 0.00 0.00 0.00 0.00 0.02 0.01 0.00 0.00
0.00 0.00 0.00 0.00 0.00 0.00 0.00 0.00 0.00 0.01 0.00 0.01 0.00 0.01 0.00 0.00 0.00 0.00 0.00 0.00 0.00 0.00 0.00 0.00 0.00 0.00 0.00 0.00 0.00 0.00 0.00 0.00 0.00 0.00 0.00 0.00 0.00 0.00 0.00 0.01 0.01 0.01 0.00
0.00 0.00 0.00 0.00 0.00 0.00 0.00 0.00 0.00 0.00 0.00 0.00 0.00 0.00 0.00 0.00 0.00 0.00 0.00 0.00 0.00 0.00 0.00 0.00 0.00 0.00 0.00 0.00 0.00 0.00 0.00 0.00 0.00 0.00 0.00 0.00 0.00 0.00 0.01 0.01 0.01 0.01 0.00
0.00 0.00 0.00 0.00 0.00 0.00 0.00 0.00 0.00 0.00 0.00 0.00 0.00 0.00 0.00 0.00 0.00 0.00 0.00 0.00 0.00 0.00 0.00 0.00 0.00 0.00 0.00 0.00 0.00 0.00 0.00 0.00 0.00 0.00 0.00 0.00 0.00 0.00 0.00 0.00 0.00 0.00 0.00
0.00 0.00 0.00 0.00 0.00 0.00 0.00 0.00 0.00 0.00 0.00 0.00 0.00 0.00 0.00 0.00 0.00 0.00 0.00 0.00 0.00 0.00 0.00 0.00 0.00 0.00 0.00 0.00 0.00 0.00 0.00 0.00 0.00 0.00 0.00 0.00 0.00 0.00 0.00 0.00 0.00 0.00 0.00
0.00 0.00 0.00 0.00 0.00 0.00 0.00 0.00 0.00 0.00 0.00 0.00 0.00 0.00 0.00 0.00 0.00 0.00 0.00 0.00 0.00 0.00 0.00 0.00 0.00 0.00 0.00 0.00 0.00 0.00 0.00 0.00 0.00 0.00 0.00 0.00 0.00 0.00 0.00 0.00 0.00 0.01 0.00
0.00 0.00 0.00 0.00 0.00 0.00 0.00 0.00 0.00 0.00 0.00 0.00 0.00 0.00 0.00 0.00 0.00 0.00 0.00 0.00 0.00 0.00 0.00 0.00 0.00 0.00 0.00 0.00 0.00 0.00 0.00 0.00 0.00 0.00 0.00 0.00 0.00 0.00 0.00 0.00 0.01 0.00 0.00
0.00 0.00 0.00 0.00 0.00 0.00 0.00 0.00 0.00 0.00 0.00 0.00 0.00 0.00 0.00 0.00 0.00 0.00 0.00 0.00 0.00 0.00 0.00 0.00 0.00 0.00 0.00 0.00 0.00 0.00 0.00 0.00 0.00 0.00 0.00 0.00 0.00 0.00 0.00 0.00 0.01 0.00 0.00
0.00 0.00 0.00 0.00 0.00 0.00 0.00 0.00 0.00 0.00 0.00 0.00 0.00 0.00 0.00 0.00 0.00 0.00 0.00 0.00 0.00 0.00 0.00 0.00 0.00 0.00 0.00 0.00 0.00 0.00 0.00 0.00 0.00 0.00 0.00 0.00 0.00 0.00 0.00 0.00 0.01 0.01 0.01
0.00 0.00 0.00 0.00 0.00 0.00 0.00 0.00 0.00 0.00 0.00 0.00 0.00 0.00 0.00 0.00 0.00 0.00 0.00 0.00 0.00 0.00 0.00 0.00 0.00 0.00 0.00 0.00 0.00 0.00 0.00 0.00 0.00 0.00 0.00 0.00 0.00 0.00 0.00 0.00 0.00 0.00 0.01
0.00 0.00 0.00 0.00 0.00 0.00 0.00 0.00 0.00 0.00 0.00 0.00 0.00 0.00 0.00 0.00 0.00 0.00 0.00 0.00 0.00 0.00 0.00 0.00 0.00 0.00 0.00 0.00 0.00 0.00 0.00 0.00 0.00 0.00 0.00 0.00 0.00 0.00 0.00 0.00 0.00 0.00 0.01
0.00 0.00 0.00 0.00 0.00 0.00 0.00 0.00 0.00 0.00 0.00 0.00 0.00 0.00 0.00 0.00 0.00 0.00 0.00 0.00 0.00 0.00 0.00 0.00 0.00 0.00 0.00 0.00 0.00 0.00 0.00 0.00 0.00 0.00 0.00 0.00 0.00 0.01 0.01 0.00 0.00 0.01 0.01
0.00 0.00 0.00 0.00 0.00 0.00 0.00 0.00 0.00 0.00 0.00 0.00 0.00 0.00 0.00 0.00 0.00 0.00 0.00 0.00 0.00 0.00 0.00 0.00 0.00 0.00 0.00 0.00 0.00 0.00 0.00 0.00 0.00 0.00 0.00 0.00 0.00 0.01 0.02 0.01 0.01 0.02 0.02
0.00 0.00 0.00 0.00 0.00 0.00 0.00 0.00 0.00 0.00 0.00 0.00 0.00 0.00 0.00 0.00 0.00 0.00 0.00 0.00 0.00 0.00 0.00 0.00 0.00 0.00 0.00 0.00 0.00 0.00 0.00 0.00 0.00 0.00 0.00 0.00 0.01 0.04 0.02 0.02 0.02 0.03 0.04
0.00 0.00 0.00 0.00 0.00 0.00 0.00 0.00 0.00 0.00 0.00 0.00 0.00 0.00 0.00 0.00 0.00 0.00 0.00 0.00 0.00 0.00 0.00 0.00 0.00 0.00 0.00 0.00 0.00 0.00 0.00 0.00 0.00 0.00 0.00 0.00 0.02 0.03 0.04 0.03 0.04 0.04 0.04
0.00 0.00 0.00 0.00 0.00 0.00 0.00 0.00 0.00 0.00 0.00 0.00 0.00 0.00 0.00 0.00 0.00 0.00 0.00 0.00 0.00 0.00 0.00 0.00 0.00 0.00 0.00 0.00 0.00 0.00 0.00 0.00 0.00 0.00 0.00 0.00 0.01 0.02 0.03 0.03 0.04 0.04 0.04
MSLP
1020.81 1020.27 1019.86 1019.46 1019.08 1018.72 1018.33 1017.86 1017.40 1016.82 1016.26 1015.72 1015.26 1014.82 1014.51 1014.45 1014.43 1014.53 1014.58 1014.66 1014.57 1014.78 1014.79 1014.87 1014.60 1014.17 1013.95 1013.92 1013.86 1013.55 1013.39 1013.01 1012.40 1012.10 1012.25 1012.27 1012.14 1012.16 1012.24 1012.03 1011.78 1011.57 1011.18
1020.97 1020.51 1020.07 1019.56 1019.12 1018.63 1018.11 1017.59 1017.08 1016.56 1016.04 1015.59 1015.08 1014.65 1014.32 1014.10 1014.11 1014.12 1014.33 1014.58 1014.62 1014.72 1014.68 1014.34 1014.42 1013.83 1013.79 1013.91 1013.55 1013.19 1013.04 1012.92 1012.82 1012.49 1012.48 1012.49 1012.42 1012.42 1012.31 1012.02 1011.80 1011.63 1011.36
1021.09 1020.58 1020.07 1019.51 1019.05 1018.62 1018.12 1017.53 1016.87 1016.26 1015.67 1015.15 1014.76 1014.37 1014.02 1013.89 1013.93 1014.08 1014.32 1014.37 1014.61 1014.44 1014.25 1014.21 1014.01 1013.81 1013.79 1013.68 1013.36 1013.18 1013.15 1013.02 1012.94 1012.73 1012.74 1012.68 1012.69 1012.62 1012.29 1012.09 1011.83 1011.59 1011.34
1020.95 1020.46 1019.97 1019.43 1018.96 1018.46 1017.84 1017.34 1016.73 1016.08 1015.45 1014.86 1014.40 1014.06 1013.87 1014.00 1014.14 1014.20 1014.20 1014.13 1014.05 1013.95 1013.89 1013.99 1013.66 1013.78 1013.76 1013.65 1013.48 1013.35 1013.22 1013.14 1013.14 1013.05 1012.93 1012.88 1012.99 1012.69 1012.55 1012.34 1011.79 1011.63 1011.44
1020.66 1020.15 1019.64 1019.16 1018.67 1018.08 1017.49 1016.97 1016.42 1015.92 1015.44 1014.91 1014.35 1013.98 1013.95 1014.06 1014.18 1013.79 1013.77 1013.97 1013.92 1013.79 1013.63 1013.74 1013.75 1013.69 1013.63 1013.78 1013.64 1013.41 1013.30 1013.34 1013.60 1013.31 1013.02 1013.22 1013.12 1012.82 1012.69 1012.40 1012.03 1011.83 1011.65
1020.22 1019.69 1019.28 1018.84 1018.39 1017.83 1017.23 1016.69 1016.11 1015.77 1015.47 1015.20 1014.95 1014.65 1014.33 1014.13 1014.07 1013.85 1013.85 1013.71 1013.49 1013.66 1013.65 1013.81 1013.86 1014.04 1014.07 1013.87 1013.91 1013.63 1013.60 1013.71 1013.83 1013.28 1013.47 1013.56 1013.34 1013.12 1012.83 1012.39 1012.11 1011.84 1011.78
1020.01 1019.53 1019.14 1018.74 1018.24 1017.77 1017.26 1016.74 1016.37 1016.06 1015.77 1015.51 1015.24 1014.87 1014.51 1014.25 1014.04 1013.86 1013.64 1013.45 1013.51 1013.64 1013.68 1014.06 1014.43 1014.68 1014.40 1014.52 1014.16 1014.09 1013.93 1013.89 1013.80 1013.68 1013.69 1013.76 1013.54 1013.18 1012.85 1012.36 1012.01 1011.91 1011.71
1020.20 1019.67 1019.23 1018.80 1018.34 1017.78 1017.33 1017.00 1016.69 1016.39 1016.11 1015.93 1015.67 1015.35 1014.98 1014.68 1014.15 1013.64 1013.33 1013.28 1013.29 1013.63 1014.24 1014.82 1015.02 1015.11 1015.02 1014.74 1014.55 1014.41 1014.23 1014.02 1013.68 1013.51 1013.61 1013.59 1013.47 1013.10 1012.73 1012.42 1012.21 1011.80 1011.54
1020.41 1019.88 1019.38 1018.96 1018.57 1018.16 1017.80 1017.41 1017.07 1016.80 1016.61 1016.45 1016.12 1015.74 1015.31 1014.98 1014.46 1013.98 1013.67 1013.69 1014.17 1014.74 1015.07 1015.29 1015.43 1015.30 1014.96 1014.78 1014.63 1014.32 1013.95 1013.63 1013.51 1013.39 1013.34 1013.37 1013.25 1012.87 1012.49 1012.20 1012.07 1011.81 1011.58
1020.58 1019.97 1019.46 1018.91 1018.58 1018.43 1018.19 1017.95 1017.78 1017.45 1017.19 1016.96 1016.74 1016.50 1016.18 1015.84 1015.42 1014.94 1014.68 1014.74 1015.25 1015.53 1015.76 1015.81 1015.61 1015.36 1015.00 1014.47 1014.24 1013.98 1013.78 1013.61 1013.51 1013.34 1013.30 1013.22 1012.98 1012.77 1012.56 1012.49 1012.34 1012.08 1012.05
1021.12 1020.58 1020.06 1019.62 1019.32 1019.13 1018.93 1018.64 1018.39 1018.11 1017.87 1017.71 1017.49 1017.34 1017.02 1016.80 1016.56 1016.19 1015.96 1015.98 1016.20 1016.22 1016.13 1015.99 1015.62 1015.17 1014.78 1014.44 1014.17 1013.97 1013.68 1013.49 1013.51 1013.51 1013.42 1013.27 1013.08 1012.92 1012.68 1012.54 1012.49 1012.32 1012.32
1021.54 1021.10 1020.72 1020.38 1020.08 1019.84 1019.60 1019.41 1019.15 1018.89 1018.69 1018.55 1018.33 1017.94 1017.83 1017.64 1017.33 1017.00 1016.74 1016.60 1016.49 1016.37 1016.29 1016.08 1015.86 1015.46 1015.21 1014.92 1014.49 1014.03 1013.41 1013.35 1013.60 1013.54 1013.59 1013.54 1013.35 1013.11 1012.83 1012.53 1012.51 1012.53 1012.46
1022.00 1021.68 1021.41 1021.17 1020.86 1020.55 1020.33 1020.22 1020.03 1019.83 1019.78 1019.63 1019.39 1019.07 1018.56 1018.20 1017.80 1017.42 1017.11 1016.91 1016.74 1016.73 1016.69 1016.51 1016.30 1016.03 1015.66 1015.30 1015.02 1014.47 1014.07 1014.01 1013.97 1013.98 1014.03 1013.95 1013.92 1013.57 1013.07 1012.70 1012.45 1012.36 1012.33
1022.52 1022.39 1022.15 1021.86 1021.71 1021.36 1021.23 1021.14 1021.03 1020.87 1020.60 1020.36 1020.05 1019.74 1019.27 1018.74 1018.49 1018.13 1017.83 1017.58 1017.36 1017.29 1017.20 1017.13 1016.91 1016.61 1016.34 1016.10 1015.62 1015.33 1015.12 1014.94 1014.82 1014.67 1014.46 1014.28 1013.97 1013.58 1013.33 1013.02 1012.73 1012.52 1012.33
1023.25 1023.23 1023.07 1022.91 1022.66 1022.45 1022.33 1022.14 1021.85 1021.56 1021.32 1020.88 1020.57 1020.35 1019.91 1019.62 1019.58 1018.99 1018.45 1018.41 1018.28 1018.19 1017.85 1017.73 1017.62 1017.40 1017.10 1016.77 1016.46 1016.25 1015.96 1015.61 1015.34 1015.24 1014.89 1014.54 1014.26 1013.91 1013.58 1013.30 1013.05 1012.82 1012.59
1024.02 1024.04 1023.92 1023.69 1023.48 1023.26 1022.83 1022.45 1022.21 1021.94 1021.41 1020.97 1020.75 1020.58 1020.57 1020.49 1020.10 1019.44 1019.23 1019.14 1019.01 1018.65 1018.78 1018.92 1018.81 1018.54 1018.22 1017.91 1017.49 1017.00 1016.63 1016.36 1016.18 1015.76 1015.35 1014.98 1014.57 1014.19 1013.90 1013.58 1013.33 1013.09 1012.94
1024.77 1024.54 1024.37 1024.11 1023.82 1023.59 1023.24 1022.99 1022.74 1022.35 1021.99 1021.79 1021.66 1021.44 1021.25 1021.00 1020.62 1020.46 1020.23 1019.92 1019.83 1019.57 1019.93 1019.91 1019.74 1019.47 1019.12 1018.75 1018.31 1017.83 1017.32 1016.94 1016.56 1016.12 1015.64 1015.22 1014.88 1014.53 1014.20 1013.92 1013.61 1013.33 1013.12
1025.14 1025.02 1024.88 1024.60 1024.20 1023.83 1023.62 1023.48 1023.16 1023.02 1022.96 1022.80 1022.55 1022.37 1022.14 1021.70 1021.46 1021.30 1021.11 1020.49 1020.92 1020.95 1020.89 1020.77 1020.56 1020.22 1019.85 1019.44 1018.96 1018.50 1017.89 1017.31 1016.91 1016.48 1016.06 1015.62 1015.20 1014.88 1014.52 1014.22 1013.90 1013.61 1013.34
1025.28 1025.20 1025.00 1024.68 1024.35 1024.15 1024.01 1023.90 1023.76 1023.65 1023.68 1023.64 1023.34 1023.05 1022.92 1022.65 1022.31 1022.26 1022.07 1022.10 1022.12 1021.99 1021.75 1021.47 1021.28 1020.87 1020.44 1019.99 1019.53 1018.98 1018.49 1017.99 1017.49 1016.82 1016.37 1015.91 1015.52 1015.17 1014.84 1014.55 1014.22 1013.95 1013.65
1025.26 1025.21 1024.98 1024.88 1024.79 1024.61 1024.50 1024.33 1024.29 1024.23 1024.20 1024.19 1024.16 1024.13 1023.81 1023.29 1023.21 1023.28 1023.22 1023.10 1022.90 1022.73 1022.51 1022.13 1021.82 1021.42 1020.98 1020.50 1020.00 1019.49 1018.90 1018.42 1017.95 1017.39 1016.76 1016.23 1015.78 1015.42 1015.12 1014.81 1014.48 1014.17 1013.88
1025.32 1025.23 1025.11 1025.05 1025.10 1025.11 1025.04 1024.95 1024.91 1024.80 1024.82 1024.81 1024.86 1024.85 1024.51 1024.20 1024.30 1024.25 1024.08 1023.90 1023.69 1023.40 1023.10 1022.74 1022.32 1021.92 1021.50 1021.02 1020.49 1019.97 1019.42 1018.91 1018.50 1017.99 1017.36 1016.73 1016.20 1015.72 1015.40 1015.06 1014.72 1014.38 1014.14
1025.38 1025.35 1025.30 1025.34 1025.39 1025.37 1025.42 1025.46 1025.43 1025.33 1025.36 1025.29 1025.28 1025.25 1025.05 1024.91 1024.88 1024.75 1024.62 1024.42 1024.19 1023.96 1023.66 1023.27 1022.78 1022.44 1022.11 1021.61 1021.15 1020.56 1020.00 1019.42 1018.90 1018.43 1017.80 1017.15 1016.66 1016.14 1015.72 1015.27 1014.92 1014.59 1014.35
1025.48 1025.52 1025.52 1025.54 1025.57 1025.66 1025.67 1025.74 1025.75 1025.72 1025.68 1025.70 1025.64 1025.58 1025.54 1025.47 1025.39 1025.25 1025.08 1024.88 1024.62 1024.31 1024.02 1023.63 1023.23 1022.74 1022.37 1021.98 1021.59 1021.17 1020.66 1020.10 1019.57 1018.97 1018.14 1017.53 1016.98 1016.47 1015.96 1015.51 1015.16 1014.86 1014.69
1025.29 1025.37 1025.46 1025.58 1025.60 1025.73 1025.84 1025.91 1025.99 1026.00 1025.95 1025.98 1026.01 1026.04 1025.99 1025.94 1025.86 1025.77 1025.58 1025.36 1025.08 1024.83 1024.53 1024.16 1023.85 1023.43 1022.89 1022.32 1021.88 1021.46 1021.09 1020.58 1019.83 1019.04 1018.36 1017.85 1017.29 1016.69 1016.18 1015.76 1015.41 1015.11 1014.95
1025.20 1025.33 1025.39 1025.47 1025.59 1025.77 1025.96 1026.04 1026.04 1026.07 1026.09 1026.15 1026.19 1026.25 1026.29 1026.24 1026.15 1026.03 1025.92 1025.74 1025.53 1025.24 1025.00 1024.67 1024.29 1023.84 1023.36 1022.91 1022.40 1021.92 1021.46 1020.85 1020.14 1019.53 1018.66 1018.15 1017.67 1017.15 1016.63 1016.20 1015.81 1015.46 1015.24
1025.24 1025.37 1025.48 1025.62 1025.75 1025.88 1025.96 1026.03 1026.15 1026.21 1026.18 1026.22 1026.33 1026.42 1026.41 1026.38 1026.36 1026.28 1026.19 1026.02 1025.81 1025.64 1025.45 1025.16 1024.77 1024.30 1023.76 1023.30 1022.93 1022.43 1021.81 1021.19 1020.57 1019.93 1019.17 1018.62 1018.14 1017.69 1017.16 1016.71 1016.30 1015.98 1015.67
Thickness
5545 5544 5542 5540 5536 5532 5529 5526 5524 5526 5527 5529 5531 5532 5531 5529 5526 5521 5517 5512 5509 5503 5499 5496 5497 5498 5500 5502 5502 5504 5507 5512 5520 5521 5513 5508 5508 5509 5510 5512 5512 5512 5514
5527 5526 5523 5521 5517 5515 5513 5511 5508 5507 5508 5509 5511 5514 5515 5514 5510 5507 5502 5496 5491 5487 5485 5485 5482 5485 5486 5486 5489 5494 5498 5501 5502 5504 5501 5498 5497 5498 5498 5500 5500 5499 5500
5508 5507 5505 5503 5500 5497 5495 5493 5492 5492 5494 5496 5499 5501 5504 5503 5499 5494 5487 5482 5476 5474 5473 5471 5471 5472 5472 5474 5478 5481 5484 5487 5489 5491 5490 5488 5487 5487 5488 5489 5490 5490 5488
5496 5494 5492 5491 5488 5485 5483 5478 5474 5474 5479 5484 5488 5492 5494 5490 5486 5482 5476 5470 5467 5464 5462 5459 5461 5459 5459 5460 5463 5468 5472 5477 5477 5479 5480 5480 5477 5478 5478 5479 5483 5482 5480
5485 5484 5482 5480 5479 5478 5474 5468 5465 5464 5468 5474 5481 5485 5485 5482 5477 5475 5470 5461 5456 5454 5455 5453 5452 5453 5452 5451 5453 5459 5463 5465 5465 5469 5471 5470 5469 5471 5471 5472 5473 5473 5471
5478 5478 5476 5475 5473 5472 5470 5467 5466 5465 5467 5469 5473 5475 5476 5474 5470 5467 5463 5458 5455 5452 5451 5449 5448 5446 5446 5451 5450 5453 5456 5456 5456 5463 5462 5461 5461 5462 5464 5466 5466 5467 5465
5476 5475 5473 5471 5471 5469 5467 5466 5465 5465 5466 5468 5469 5471 5471 5469 5467 5465 5462 5459 5455 5451 5450 5446 5443 5440 5443 5442 5445 5446 5448 5449 5451 5452 5453 5452 5453 5455 5456 5461 5462 5461 5462
5472 5472 5471 5469 5468 5467 5465 5462 5462 5462 5463 5464 5466 5467 5467 5466 5468 5468 5466 5464 5461 5455 5447 5441 5439 5438 5437 5439 5440 5441 5442 5444 5447 5449 5448 5447 5447 5449 5450 5453 5455 5457 5458
5471 5470 5470 5470 5468 5465 5462 5461 5461 5462 5463 5463 5464 5465 5466 5466 5468 5468 5467 5463 5456 5448 5443 5439 5436 5436 5437 5437 5438 5439 5442 5444 5445 5445 5445 5444 5443 5445 5447 5451 5453 5453 5455
5471 5471 5472 5473 5471 5467 5464 5463 5462 5463 5462 5462 5462 5461 5462 5462 5462 5463 5462 5457 5450 5444 5438 5435 5435 5435 5436 5438 5440 5441 5442 5442 5441 5441 5439 5439 5440 5442 5443 5445 5446 5447 5446
5469 5469 5471 5471 5470 5468 5465 5464 5464 5463 5463 5461 5461 5459 5459 5458 5456 5455 5453 5448 5442 5438 5436 5435 5435 5436 5437 5437 5438 5438 5439 5439 5437 5436 5435 5435 5435 5435 5439 5440 5439 5441 5439
5470 5470 5470 5470 5469 5468 5466 5465 5464 5463 5463 5460 5459 5458 5456 5454 5453 5450 5448 5446 5442 5439 5436 5435 5434 5433 5433 5433 5435 5436 5439 5438 5436 5434 5433 5431 5431 5432 5433 5435 5434 5433 5433
5470 5469 5469 5468 5468 5467 5465 5463 5462 5460 5458 5456 5454 5453 5453 5453 5451 5450 5449 5446 5443 5439 5435 5432 5430 5430 5431 5432 5432 5434 5435 5434 5431 5429 5426 5425 5422 5423 5425 5427 5428 5428 5427
5469 5468 5468 5468 5466 5466 5463 5460 5458 5456 5456 5455 5454 5452 5452 5451 5449 5447 5446 5444 5441 5438 5434 5431 5430 5429 5428 5428 5429 5428 5426 5424 5422 5420 5419 5417 5417 5418 5417 5419 5419 5420 5421
5468 5465 5464 5463 5463 5462 5460 5457 5457 5456 5454 5454 5453 5450 5450 5448 5443 5443 5443 5439 5436 5433 5432 5430 5427 5425 5424 5423 5422 5419 5417 5416 5414 5411 5410 5409 5408 5409 5409 5410 5410 5411 5413
5468 5465 5463 5462 5461 5460 5460 5459 5459 5457 5457 5457 5454 5452 5448 5443 5441 5441 5438 5434 5431 5431 5427 5422 5419 5417 5415 5413 5412 5412 5409 5406 5402 5402 5401 5401 5401 5401 5401 5401 5402 5403 5404
5466 5465 5464 5463 5463 5461 5461 5460 5459 5458 5457 5454 5450 5446 5443 5441 5439 5436 5433 5431 5427 5425 5418 5414 5411 5409 5407 5405 5403 5402 5401 5399 5396 5394 5394 5393 5392 5393 5393 5393 5395 5397 5398
5466 5465 5464 5463 5464 5463 5462 5460 5458 5455 5451 5447 5446 5443 5440 5438 5436 5432 5429 5429 5420 5415 5411 5408 5405 5402 5400 5398 5396 5394 5394 5393 5390 5389 5387 5386 5385 5385 5386 5386 5388 5390 5392
5468 5466 5465 5466 5465 5463 5461 5458 5454 5451 5447 5443 5441 5439 5435 5433 5431 5425 5421 5417 5412 5408 5405 5403 5399 5398 5396 5393 5391 5390 5388 5386 5384 5384 5382 5381 5380 5380 5379 5380 5382 5383 5386
5470 5467 5467 5466 5464 5462 5459 5456 5452 5448 5444 5440 5436 5431 5430 5430 5423 5418 5414 5410 5406 5403 5400 5398 5395 5394 5392 5390 5388 5386 5384 5382 5379 5378 5378 5378 5377 5376 5375 5376 5378 5380 5384
5472 5470 5467 5466 5462 5458 5455 5451 5447 5444 5440 5435 5430 5425 5422 5422 5415 5411 5407 5404 5400 5397 5395 5393 5391 5390 5388 5386 5384 5382 5380 5378 5375 5373 5373 5373 5373 5373 5373 5374 5376 5379 5382
5473 5470 5467 5463 5460 5456 5453 5448 5444 5440 5436 5432 5428 5423 5419 5416 5411 5408 5403 5399 5396 5393 5390 5388 5387 5384 5382 5381 5379 5378 5376 5375 5373 5370 5370 5370 5370 5371 5372 5373 5375 5379 5383
5474 5470 5466 5463 5459 5454 5450 5445 5441 5437 5433 5429 5425 5421 5416 5412 5407 5403 5399 5395 5392 5390 5387 5385 5383 5382 5380 5378 5376 5373 5372 5371 5369 5367 5368 5367 5367 5369 5372 5374 5377 5381 5385
5478 5473 5468 5463 5459 5453 5448 5444 5439 5435 5432 5427 5422 5417 5412 5408 5403 5398 5394 5391 5388 5385 5383 5381 5378 5376 5375 5375 5374 5371 5368 5368 5367 5367 5366 5366 5367 5370 5374 5378 5382 5385 5389
5480 5474 5469 5464 5459 5453 5447 5443 5439 5435 5430 5425 5420 5415 5409 5404 5400 5396 5391 5387 5384 5382 5379 5377 5375 5373 5372 5371 5370 5368 5368 5368 5367 5367 5367 5367 5369 5372 5376 5381 5385 5389 5393
5480 5475 5469 5464 5458 5452 5447 5443 5438 5433 5429 5424 5418 5412 5407 5403 5398 5393 5388 5385 5381 5378 5375 5373 5371 5370 5369 5368 5367 5367 5367 5367 5367 5368 5368 5369 5371 5375 5379 5383 5387 5390 5395